Weather History for Manhattan, KS

Change the Weather History Date:

Saturday, October 5, 2013

  Actual Average Record
Temperature  
Mean Temperature 53 °F 60 °F  
Max Temperature 62 °F 73 °F 91 °F (2007)
Min Temperature 44 °F 46 °F 34 °F (1999)
Degree Days  
Heating Degree Days 12 7  
Month to date heating degree days 12 33  
Since 1 July heating degree days 32 103  
Cooling Degree Days 0 2  
Month to date cooling degree days 24 10  
Year to date cooling degree days 1504 1347  
Growing Degree Days 4 (Base 50)    
Moisture  
Dew Point 35 °F    
Average Humidity 53    
Maximum Humidity 70    
Minimum Humidity 36    
Precipitation  
Precipitation 0.02 in 0.09 in 0.65 in (2005)
Month to date precipitation 1.89 0.43  
Year to date precipitation 26.21 28.14  
Sea Level Pressure  
Sea Level Pressure 30.00 in    
Wind  
Wind Speed 9 mph (West)    
Max Wind Speed 20 mph    
Max Gust Speed 28 mph    
Visibility 10 miles    
Events Rain    
T = Trace of Precipitation, MM = Missing Value Source: NWS Daily Summary

Daily Weather History Graph

Daily Weather History Graph

Search for Another Location

Airport:

Trip Planner

Search our weather history database for the weather conditions in past years. The results will help you decide how hot, cold, wet, or windy it might be!

Date:

Astronomy

Oct. 05, 2013 Rise Set
Actual Time 7:26 AM CDT 7:02 PM CDT
Civil Twilight 7:00 AM CDT 7:29 PM CDT
Nautical Twilight 6:29 AM CDT 8:00 PM CDT
Astronomical Twilight 5:57 AM CDT 8:31 PM CDT
Moon 8:06 AM CDT (10/5) 7:23 PM CDT (10/5)
Length of Visible Light 12h 29m
Length of Day
11h 35m
New Moon, 1% of the Moon is Illuminated
Oct 5
New Moon
Oct 11
First Quarter
Oct 18
Full
Oct 26
Last Quarter
Nov 3
New

Hourly Weather History & Observations

Time (CDT) Temp. Windchill Dew Point Humidity Pressure Visibility Wind Dir Wind Speed Gust Speed Precip Events Conditions
12:52 AM 50.0 °F - 39.9 °F 68% 29.99 in 10.0 mi WNW 8.1 mph - 0.02 in Rain Light Rain
1:52 AM 50.0 °F - 39.9 °F 68% 30.00 in 10.0 mi Variable 4.6 mph - 0.02 in   Overcast
2:52 AM 48.9 °F - 36.0 °F 61% 30.01 in 10.0 mi West 9.2 mph - N/A   Overcast
3:52 AM 48.0 °F - 33.1 °F 56% 30.00 in 10.0 mi Variable 5.8 mph - N/A   Mostly Cloudy
4:52 AM 46.0 °F 43.9 °F 35.1 °F 66% 30.03 in 10.0 mi West 4.6 mph - N/A   Mostly Cloudy
5:52 AM 48.0 °F - 34.0 °F 58% 30.03 in 10.0 mi West 9.2 mph - N/A   Overcast
6:52 AM 46.9 °F - 36.0 °F 66% 30.04 in 10.0 mi West 8.1 mph - N/A   Overcast
7:52 AM 48.0 °F - 35.1 °F 61% 30.02 in 10.0 mi West 8.1 mph - N/A   Overcast
8:52 AM 48.0 °F - 35.1 °F 61% 30.04 in 10.0 mi WSW 8.1 mph - N/A   Overcast
9:52 AM 48.9 °F - 34.0 °F 56% 30.05 in 10.0 mi West 11.5 mph 20.7 mph N/A   Overcast
10:52 AM 50.0 °F - 34.0 °F 54% 30.06 in 10.0 mi West 10.4 mph 16.1 mph N/A   Overcast
11:52 AM 51.1 °F - 34.0 °F 52% 30.06 in 10.0 mi West 10.4 mph 24.2 mph N/A   Overcast
12:52 PM 55.0 °F - 35.1 °F 47% 30.06 in 10.0 mi WSW 11.5 mph 24.2 mph N/A   Partly Cloudy
1:52 PM 59.0 °F - 36.0 °F 42% 30.00 in 10.0 mi WSW 16.1 mph 23.0 mph N/A   Clear
2:52 PM 61.0 °F - 34.0 °F 36% 29.97 in 10.0 mi West 16.1 mph 27.6 mph N/A   Partly Cloudy
3:52 PM 61.0 °F - 34.0 °F 36% 29.95 in 10.0 mi West 18.4 mph 24.2 mph N/A   Scattered Clouds
4:52 PM 60.1 °F - 34.0 °F 38% 29.94 in 10.0 mi West 17.3 mph 24.2 mph N/A   Overcast
5:52 PM 59.0 °F - 33.1 °F 38% 29.94 in 10.0 mi West 15.0 mph 26.5 mph N/A   Mostly Cloudy
6:52 PM 54.0 °F - 34.0 °F 47% 29.96 in 10.0 mi West 8.1 mph - N/A   Clear
7:52 PM 51.1 °F - 35.1 °F 54% 29.96 in 10.0 mi West 6.9 mph - N/A   Clear
8:52 PM 48.0 °F - 36.0 °F 63% 29.97 in 10.0 mi West 5.8 mph - N/A   Clear
9:52 PM 46.0 °F - 36.0 °F 68% 29.98 in 10.0 mi Calm Calm - N/A   Clear
10:52 PM 46.0 °F 42.5 °F 34.0 °F 63% 29.98 in 10.0 mi West 6.9 mph - N/A   Clear
11:52 PM 45.0 °F 41.2 °F 35.1 °F 68% 29.97 in 10.0 mi West 6.9 mph - N/A   Clear